Volver al catálogo

ASTRA 1L

ActivoComunicacionesGEO
NORAD 31306·PAYLOAD·🇱🇺 Luxembourg

Lanzado May 4, 2007 desde Guiana Space Centre

Loading…

TLE

ActualizadoSource: CelesTrak SupGP

Época: Sep 13, 2026, 23:44 UTC

1 31306C 07016A   26256.98958333 -.00000094  00000+0  00000+0 0  2564
2 31306   1.5449  80.6807 0004878  90.3235 153.7344  1.00271989    11

Sigue ASTRA 1L en tiempo real con AllMySat

Download on the App Store